Location: Ch?enovice
(49.7164°N, 15.2160°E)
Time: 20:06:50
(UTC+00:00)

Cosmos 1814 Rocket - Pass Details

Date: 23 May 2024
Orbit: 742 x 785 km, 74.1° (Epoch: 21 June)

Event Time Altitude Azimuth Distance (km) Brightness Sun altitude
Rises 00:53:02 0° 337° (NNW) 3,219 7.8 -15.0°
Reaches altitude 10° 00:55:25 10° 341° (NNW) 2,296 7.1 -14.8°
Maximum altitude 01:00:37 67° 64° (ENE) 830 4.4 -14.4°
Drops below altitude 10° 01:05:50 10° 147° (SSE) 2,308 6.2 -14.0°
Sets 01:08:14 0° 150° (SSE) 3,237 7.0 -13.8°
